Location: Lauzat
(45.7414°N, 1.8404°E)
Time: 07:14:25
(UTC+00:00)

Daily predictions for brighter satellites

Satellite Brightness Start Highest point End
(mag) Time Altitude Azimuth Time Altitude Azimuth Time Altitude Azimuth
Cosmos 2084 3.8 20:16:24 10° S 20:19:53 33° ESE 20:23:22 10° NE
USA 276 2.6 20:24:53 10° SSW 20:27:39 33° SE 20:30:24 10° E
Spot 2 Rocket 4.4 20:26:19 10° SE 20:30:53 35° ENE 20:35:28 10° N
ATLAS 2AS CENTAUR R/B 3.1 20:24:00 10° NW 20:31:04 57° NE 20:37:39 10° ESE
Meteor 1-24 Rocket 3.9 20:27:49 10° SSE 20:32:54 50° E 20:38:08 10° NNE
MetOp-B 4.2 20:28:29 10° SSE 20:33:48 71° ENE 20:39:09 10° N
Cosmos 1544 Rocket 4.4 20:29:51 10° N 20:33:50 35° ENE 20:37:49 10° SE
Cosmos 1371 Rocket 4.0 20:29:55 10° S 20:35:03 63° ESE 20:40:18 10° NNE
Lacrosse 5 2.5 20:30:24 10° NW 20:35:25 53° NNE 20:40:24 10° ESE
Cosmos 1745 Rocket 4.3 20:29:43 10° NNW 20:35:50 71° W 20:41:58 10° S
X-37B 0.7 20:34:57 10° SW 20:37:37 39° SSE 20:40:17 10° E
Cosmos 1833 Rocket 4.4 20:36:30 10° SE 20:39:14 14° E 20:41:59 10° ENE
Terra 3.0 20:38:13 10° SE 20:42:15 29° ENE 20:46:19 10° N
Resurs 01 Rocket 2.5 20:44:25 10° S 20:48:42 49° W 20:53:03 10° NNW
Cosmos 1300 4.3 20:46:14 10° NNW 20:49:39 32° W 20:53:03 10° SSW
Helios 1A Rocket 3.4 20:51:31 13° SE 20:54:58 46° ENE 20:58:54 10° N
Cosmos 1624 Rocket 4.0 20:50:07 10° SSW 20:55:22 86° ESE 21:00:36 10° NNE
CZ-4B R/B 2.2 20:53:42 10° N 20:56:29 44° WNW 20:59:14 10° SSW
Cosmos 1190 Rocket 4.3 20:52:28 10° NNW 20:57:47 70° WSW 21:03:02 10° S
Lacrosse 5 rocket 1.2 20:54:49 10° NW 20:58:40 76° SW 21:01:56 15° SE
Cosmos 407 Rocket 4.4 20:55:48 10° NNW 21:00:41 43° WSW 21:05:30 10° S
Cosmos 1271 Rocket 2.9 20:57:14 10° N 21:01:12 62° ENE 21:04:25 15° SSE
SPOT 3 Rocket 3.6 20:59:39 10° SSE 21:04:50 82° WSW 21:10:05 10° NNW
NOSS 2-1 (E) 4.3 21:01:18 10° NNW 21:05:51 65° NE 21:11:18 14° SE
ERS-1 Rocket 3.1 21:03:41 14° SSE 21:07:57 62° ENE 21:12:56 10° N
USA 102 4.4 21:04:50 21° SSE 21:08:11 88° ENE 21:15:53 10° NNW
RESURS DK-1 3.9 21:06:32 10° N 21:10:02 26° NE 21:13:07 12° ESE
Cosmos 2056 Rocket 4.0 21:10:46 10° SSW 21:16:07 66° WNW 21:21:32 10° NNE
Cosmos 1025 Rocket 3.8 21:12:20 10° SSW 21:16:29 52° WNW 21:20:42 10° N
CZ-2C R/B 3.9 21:13:06 10° NNE 21:17:36 52° E 21:21:17 14° S
Cosmos 2315 Rocket 4.5 21:12:42 10° SSW 21:18:59 65° W 21:25:17 10° N
Cosmos 1455 Rocket 4.3 21:15:48 10° NNW 21:19:50 38° W 21:23:49 10° SSW
ARIANE 5 R/B 3.2 21:18:10 18° SE 21:21:13 47° ENE 21:25:29 10° N
Cosmos 1420 Rocket 4.4 21:18:46 10° SSW 21:23:58 69° WNW 21:29:16 10° NNE
Cosmos 676 Rocket 4.3 21:20:00 10° NNW 21:25:17 67° WSW 21:29:29 16° S
SL-8 R/B 4.1 21:22:54 10° WNW 21:27:42 66° N 21:32:31 10° E
Cosmos 1455 2.7 21:28:40 10° NNW 21:32:24 54° W 21:35:18 16° S
Cosmos 2074 Rocket 4.0 21:29:07 10° N 21:35:26 79° E 21:40:08 19° SSE
COSMOS 2406 4.3 21:37:53 20° SE 21:40:11 26° ESE 21:44:54 10° NE
ASTEX 1 4.5 21:36:10 10° NNE 21:40:33 29° E 21:42:45 21° SE
TSX-5 4.2 21:38:35 10° SSW 21:42:52 77° ESE 21:48:28 10° NNE
USA 267 3.2 21:39:26 10° NE 21:45:56 63° SE 21:52:25 10° SW
Cosmos 1536 Rocket 3.6 21:43:14 14° SSW 21:46:51 75° W 21:51:12 10° N
NOSS 2-1 (C) 4.4 21:42:46 10° NW 21:47:24 61° SW 21:51:27 22° SSE
SPOT 5 3.4 21:46:23 16° SSW 21:49:42 45° W 21:53:54 10° NNW
Cosmos 2228 2.9 21:45:42 10° N 21:49:57 73° E 21:52:05 28° SSE
Tiangong 2.4 21:48:07 10° WSW 21:50:37 25° SSW 21:50:37 25° SSW
Nadezhda 1 Rocket 4.0 21:47:09 20° S 21:51:28 65° E 21:57:29 10° NNE
Cosmos 1850 Rocket 3.9 21:47:07 10° NNW 21:52:21 84° ENE 21:55:21 26° SSE
Cosmos 1980 Rocket 3.5 21:47:29 10° N 21:52:32 31° NE 21:56:37 14° ESE
Cosmos 1703 3.2 21:51:22 22° SSW 21:53:49 81° W 21:57:41 10° N
Cosmos 1606 Rocket 3.8 21:50:46 10° N 21:55:00 53° ENE 21:56:56 29° SE
Cosmos 1697 Rocket 3.0 21:49:48 10° NNW 21:55:21 57° ENE 21:58:44 23° SE
Cosmos 1892 4.4 21:55:58 18° E 21:56:26 18° E 21:59:01 10° NE
Cosmos 2154 Rocket 4.0 21:53:59 10° N 22:00:15 85° E 22:04:13 24° S
USA 276 2.8 22:00:19 10° W 22:03:16 51° NNW 22:06:13 10° ENE
Cosmos 1610 Rocket 4.5 21:57:33 10° N 22:03:47 82° E 22:07:40 25° SSE
Cosmos 1656 3.9 21:59:24 10° NNW 22:04:47 62° WSW 22:07:55 25° S
Cosmos 1328 3.9 22:04:04 34° SSE 22:05:33 57° E 22:09:30 10° NNE
Cosmos 1295 Rocket 4.5 21:59:15 10° N 22:05:33 87° E 22:09:23 25° S
Cosmos 1331 Rocket 4.0 22:04:06 22° S 22:07:36 70° ESE 22:12:53 10° NNE
X-37B 0.1 22:10:09 10° W 22:12:57 79° S 22:12:57 79° S
Meteor 1-21 Rocket 4.2 22:10:01 20° SSW 22:13:56 86° W 22:19:38 10° N
Cosmos 1408 3.3 22:15:25 32° E 22:15:39 32° E 22:18:46 10° NNE
Cosmos 1452 Rocket 4.0 22:12:31 10° SW 22:17:42 58° WNW 22:22:54 10° NNE
Lacrosse 5 2.7 22:13:37 10° WNW 22:18:17 36° SW 22:20:08 27° S
Cosmos 1726 Rocket 3.5 22:15:29 10° N 22:19:49 76° E 22:21:23 38° SSE
Terra 3.0 22:16:55 18° SSW 22:19:53 36° W 22:24:17 10° NNW
SAR-Lupe-4 3.4 22:16:18 10° NNE 22:19:54 86° ESE 22:21:00 43° S
USA 234 3.5 22:14:24 14° ESE 22:20:03 71° NNE 22:26:35 10° NW
ATLAS 2AS CENTAUR R/B 3.6 22:15:26 10° NW 22:21:41 36° WSW 22:25:25 20° SSW
Cosmos 1833 Rocket 2.6 22:17:42 16° SSW 22:22:18 89° W 22:27:58 10° NNE
Cosmos 1110 Rocket 4.2 22:25:42 17° SSW 22:29:49 71° WNW 22:35:08 10° NNE
SL-8 Rocket 4.2 22:24:32 10° N 22:30:43 58° ENE 22:33:46 30° SE
Cosmos 2360 4.2 22:27:45 10° NNW 22:33:31 78° WSW 22:36:09 33° SSE
Cosmos 1302 Rocket 4.1 22:31:56 35° SSE 22:33:56 58° ESE 22:39:02 10° NNE
Cosmos 1900 4.4 22:29:11 10° NNW 22:34:23 86° ENE 22:36:32 36° SE
ALOS 2 3.8 22:32:45 24° ESE 22:34:25 32° ENE 22:38:18 10° N
Lacrosse 5 rocket 3.7 22:36:01 10° WSW 22:37:08 11° WSW 22:37:26 11° SW
Cosmos 967 Rocket 4.5 22:34:40 14° SSW 22:40:27 88° ESE 22:46:58 10° NE
Cosmos 2218 Rocket 4.3 22:36:27 10° N 22:42:49 61° ENE 22:45:53 31° SSE
Cosmos 2082 Rocket 2.3 22:42:48 34° S 22:45:11 60° ESE 22:50:48 10° NNE
Cosmos 2366 rocket 4.2 22:40:17 10° N 22:46:35 65° E 22:49:34 32° SSE
RESURS DK-1 3.3 22:44:20 10° NW 22:48:05 34° WSW 22:48:58 31° SW
H-2A R/B 4.0 22:46:37 10° NNE 22:50:37 41° E 22:51:09 39° ESE
Cosmos 2341 Rocket 4.0 22:44:43 10° N 22:51:05 85° W 22:54:07 33° S
Cosmos 2058 Rocket 3.0 22:49:25 10° N 22:53:50 82° W 22:55:04 47° S
Spot 4 3.8 22:52:43 42° SSE 22:54:19 81° ENE 22:59:08 10° NNW
Cosmos 1892 Rocket 3.9 22:53:33 33° SW 22:55:19 60° W 22:59:41 10° N
Cosmos 1825 2.3 22:58:50 52° ESE 22:59:03 53° E 23:02:43 10° NNE
Cosmos 192 4.5 23:00:39 30° SW 23:03:02 70° WNW 23:07:57 10° NNE
TIMED 4.5 23:02:21 53° SSE 23:03:12 68° ESE 23:07:33 10° NNE
Cosmos 968 Rocket 3.5 23:00:27 10° NNW 23:05:38 74° WSW 23:07:22 43° S
ERS-2 3.5 23:03:06 10° NE 23:05:53 26° E 23:05:53 26° E
Cosmos-2242 4.2 23:03:24 10° N 23:07:11 30° ENE 23:08:16 27° ESE
GP-B 3.9 23:05:28 10° N 23:09:42 45° W 23:11:19 31° SW
SL-8 R/B 3.7 23:05:32 10° WNW 23:10:18 63° SSW 23:11:22 49° SSE
Cosmos 1959 Rocket 4.4 23:04:57 10° N 23:11:06 88° WSW 23:13:40 37° S
Cosmos 1626 Rocket 3.5 23:10:22 54° SSE 23:11:10 68° E 23:15:29 10° NNE
Cosmos 1869 3.1 23:12:48 10° N 23:16:41 86° ENE 23:17:08 69° SSE
BREEZE-M DEB (TANK) 4.1 23:13:39 10° WNW 23:16:55 65° NNE 23:29:23 10° E
Cosmos 1606 4.2 23:14:18 10° NNE 23:17:33 25° ENE 23:18:18 24° E
Meteor 1-27 4.1 23:13:03 10° NNW 23:18:39 84° W 23:20:39 42° S
Cosmos 864 Rocket 4.5 23:14:53 10° NNW 23:21:03 74° W 23:23:39 37° S
Cosmos 2181 Rocket 4.1 23:20:12 33° SSW 23:23:08 72° W 23:29:22 10° N
ADEOS Rocket 3.4 23:20:29 34° SSE 23:24:01 89° ENE 23:31:43 10° NNW
COSMOS 2406 3.9 23:19:53 17° SW 23:24:10 53° WNW 23:29:48 10° NNE
Cosmos 1633 2.9 23:25:15 51° E 23:25:15 51° E 23:28:28 10° NNE
Cosmos 2369 4.1 23:22:47 10° NW 23:28:19 50° WSW 23:30:04 37° SSW
Okean 1-7 Rocket 3.7 23:27:28 47° SW 23:28:37 68° W 23:33:06 10° N
USA 267 4.0 23:22:34 10° NE 23:28:53 52° NNW 23:35:10 10° W
SL-16 R/B 3.0 23:24:23 10° NNW 23:29:51 46° ENE 23:33:07 23° ESE
Cosmos 1892 3.9 23:30:47 28° WSW 23:31:43 32° WNW 23:35:08 10° N
Meteor 2-20 4.5 23:32:15 39° SSE 23:34:34 69° E 23:40:39 10° NNE
Cosmos 1980 Rocket 2.6 23:31:17 10° NW 23:36:45 48° WSW 23:38:21 37° SSW
SJ 16-02 2.6 23:33:23 10° N 23:37:26 34° ENE 23:39:13 25° ESE
Cosmos 1486 Rocket 3.9 23:32:45 10° NNW 23:38:00 86° WSW 23:39:34 47° SSE
Cosmos 1697 Rocket 4.1 23:34:33 10° NW 23:38:53 23° WSW 23:40:27 21° SW
USA 276 3.7 23:36:30 10° WNW 23:39:19 34° N 23:42:07 10° ENE
Cosmos 2084 Rocket 3.8 23:35:40 10° NW 23:39:10 42° WSW 23:39:10 42° WSW
Cosmos 1821 Rocket 3.9 23:37:06 10° N 23:43:25 84° E 23:45:54 39° SSE
Cosmos 1340 Rocket 4.1 23:48:44 26° E 23:48:59 26° E 23:52:19 10° NE
Cosmos 1992 Rocket 4.1 23:48:17 38° SW 23:50:18 71° WNW 23:55:33 10° NNE
